Regional Weather Roundup
Issued by NWS

Home | Current Version | Previous Version | Text Only | Print | Product List | Glossary On
Versions: 1 2 3 4 5 6 7 8 9 10 11 12 13 14 15 16 17 18 19 20 21 22 23 24 25 26 27 28 29 30 31 32 33 34 35 36 37 38 39 40 41 42 43 44 45 46 47 48 49 50
000
ASUS44 KOUN 261310
RWROK

WEATHER ROUNDUP FOR OKLAHOMA
NATIONAL WEATHER SERVICE NORMAN OK
800 AM CDT SUN MAR 26 2017

NOTE: "FAIR" INDICATES FEW OR NO CLOUDS BELOW 12,000 FEET WITH NO
      SIGNIFICANT WEATHER AND/OR OBSTRUCTIONS TO VISIBILITY.

OKZ001>007-009>012-014-015-017-261400-
NORTHWEST OKLAHOMA AND THE PANHANDLE

CITY           SKY/WX    TMP DP  RH WIND       PRES   REMARKS
GAGE           CLOUDY    41  39  93 E5        29.82R FOG
GUYMON         CLOUDY    40  37  89 E6        29.70F
ENID/WOODRING  MOCLDY    39  39 100 SE7       29.89S FOG     WCI  34
$$

OKZ016-021>023-033>039-044-045-261400-
SOUTHWEST OKLAHOMA

CITY           SKY/WX    TMP DP  RH WIND       PRES   REMARKS
LAWTON/REGL    CLEAR     46  43  89 E7        29.83S
LAWTON/FT SILL CLEAR     45  45 100 NE3       29.82S
FREDERICK      CLEAR     47  43  86 E10       29.78S
CLINTON        PTCLDY    44  40  85 E9        29.82S
HOBART         PTCLDY    44  42  93 E7        29.81S
ALTUS AFB      CLOUDY    48  42  81 SE9       29.80R
$$

OKZ018>020-024>031-261400-
CENTRAL OKLAHOMA

CITY           SKY/WX    TMP DP  RH WIND       PRES   REMARKS
OKLAHOMA CITY  CLOUDY    45  42  89 SE8       29.87F
OKC/WILEY POST CLOUDY    47  43  86 E5        29.87S
OKC/TINKER AFB PTCLDY    43  42  94 E8        29.86F
STILLWATER     CLOUDY    40  39  97 E3        29.91R FOG
GUTHRIE        CLOUDY    43  41  93 E6        29.90R
$$

OKZ008-013-054>072-261400-
NORTHEAST OKLAHOMA

CITY           SKY/WX    TMP DP  RH WIND       PRES   REMARKS
TULSA          PTCLDY    41  40  96 CALM      29.93R FOG
TULSA/JONES    CLEAR     40  39  97 CALM      29.94R
PONCA CITY     CLOUDY    38  36  92 CALM      29.91R
BARTLESVILLE   CLEAR     38  37  97 CALM      29.94S FOG
MUSKOGEE       PTCLDY    42  42 100 CALM      29.95R FOG
$$

OKZ032-040>043-046>053-073>077-261400-
SOUTH CENTRAL/SOUTHEAST OKLAHOMA

CITY           SKY/WX    TMP DP  RH WIND       PRES   REMARKS
ARDMORE/DWNTWN CLEAR     45  41  87 CALM      29.88R
MCALESTER      CLEAR     46  43  89 E3        29.93R FOG
$$





USA.gov is the U.S. government's official web portal to all federal, state and local government web resources and services.